Location: Unspecified
(51.3947°N, 0.0000°E)
Time: 13:07:22
(UTC+00:00)

Tiangong 2 - Pass Details

Date: 04 July 2019
Orbit: 378 x 386 km, 42.8° (Epoch: 18 July)

Event Time Altitude Azimuth Distance (km) Brightness Sun altitude
Exits shadow 01:41:12 16° 157° (SSE) 1,113 3.0 -12.7°
Drops below altitude 10° 01:42:35 10° 132° (SE) 1,393 3.7 -12.6°
Sets 01:45:09 0° 110° (ESE) 2,248 5.0 -12.5°
